Location: Narrabri
(30.3170°S, 149.7830°E)
Time: 09:15:40
(UTC+11:00)

Vanguard 1 - All Passes

Search period start: 19 October 2017 00:00
Search period end: 29 October 2017 00:00
Orbit: 650 x 3834 km, 34.3° (Epoch: 18 October)

Date Brightness Start Highest point End Pass type
(mag) Time Alt. Az. Time Alt. Az. Time Alt. Az.
19 Oct - 10:17:59 10° NNW 10:30:15 26° NNE 10:38:12 10° E daylight
19 Oct - 12:40:53 10° NW 12:52:52 63° NNE 12:59:22 10° ESE daylight
19 Oct - 15:06:16 10° W 15:13:53 64° S 15:18:44 10° ESE daylight
19 Oct - 17:29:26 10° WSW 17:34:25 72° SSE 17:38:54 10° E daylight
19 Oct - 19:50:24 10° W 19:54:18 28° NNW 19:59:05 10° NNE visible
20 Oct - 08:22:59 10° NNE 08:27:16 11° NNE 08:31:06 10° NE daylight
20 Oct - 10:37:54 10° NNW 10:51:46 35° NNE 11:00:03 10° E daylight
20 Oct - 13:02:19 10° WNW 13:14:04 79° NNE 13:20:23 10° ESE daylight
20 Oct - 15:27:56 10° W 15:35:04 59° S 15:39:47 10° ESE daylight
20 Oct - 17:50:37 10° WSW 17:55:29 86° NNW 18:00:01 10° ENE daylight
20 Oct - 20:12:10 10° WNW 20:15:21 18° NNW 20:19:06 10° NNE visible
21 Oct - 08:38:33 10° N 08:49:07 17° NNE 08:57:11 10° ENE daylight
21 Oct - 10:58:23 10° NW 11:13:12 45° NNE 11:21:31 10° E daylight
21 Oct - 13:23:59 10° WNW 13:35:14 86° SSW 13:41:22 10° ESE daylight
21 Oct - 15:49:32 10° WSW 15:56:16 59° S 16:00:52 10° E daylight
21 Oct - 18:11:49 10° WSW 18:16:28 59° NNW 18:20:59 10° NE daylight
21 Oct - 20:35:25 10° NW 20:36:26 11° NNW 20:37:30 10° NNW visible
22 Oct - 08:56:59 10° NNW 09:10:50 24° NNE 09:20:22 10° E daylight
22 Oct - 11:19:20 10° NW 11:34:35 57° NNE 11:42:45 10° ESE daylight
22 Oct - 13:45:48 10° W 13:56:27 75° SSW 14:02:20 10° ESE daylight
22 Oct - 16:11:02 10° WSW 16:17:28 64° S 16:21:59 10° E daylight
22 Oct - 18:33:07 10° W 18:37:24 38° NNW 18:41:43 10° NE daylight
23 Oct - 09:16:28 10° NNW 09:32:27 33° NNE 09:42:38 10° E daylight
23 Oct - 11:40:38 10° WNW 11:55:53 70° NNE 12:03:52 10° ESE daylight
23 Oct - 14:07:41 10° W 14:17:40 67° S 14:23:20 10° ESE daylight
23 Oct - 16:32:26 10° WSW 16:38:36 77° SSE 16:43:05 10° E daylight
23 Oct - 18:54:40 10° W 18:58:18 23° NNW 19:02:03 10° NNE daylight
24 Oct - 07:19:05 10° N 07:28:55 15° NE 07:37:08 10° ENE daylight
24 Oct - 09:36:36 10° NNW 09:54:00 42° NNE 10:04:21 10° E daylight
24 Oct - 12:02:14 10° WNW 12:17:11 83° NNE 12:24:54 10° ESE daylight
24 Oct - 14:29:33 10° W 14:38:56 63° S 14:44:22 10° ESE daylight
24 Oct - 16:53:47 10° WSW 16:59:39 81° NNW 17:04:05 10° ENE daylight
24 Oct - 19:16:52 10° WNW 19:19:11 14° NNW 19:21:36 10° N daylight
25 Oct - 07:36:26 10° N 07:50:42 22° NE 08:01:31 10° ENE daylight
25 Oct - 09:57:15 10° NW 10:15:29 52° NNE 10:25:47 10° E daylight
25 Oct - 12:24:05 10° WNW 12:38:28 85° SSW 12:45:53 10° ESE daylight
25 Oct - 14:51:21 10° W 15:00:11 64° S 15:05:26 10° E daylight
25 Oct - 17:15:08 10° WSW 17:20:37 55° NNW 17:24:56 10° NE daylight
26 Oct - 07:55:18 10° NNW 08:12:21 29° NE 08:24:23 10° E daylight
26 Oct - 10:18:18 10° NW 10:36:54 64° NNE 10:47:01 10° ESE daylight
26 Oct - 12:46:06 10° W 12:59:45 76° SSW 13:06:53 10° ESE daylight
26 Oct - 15:13:02 10° WSW 15:21:26 70° S 15:26:30 10° E daylight
26 Oct - 17:36:35 10° W 17:41:28 35° NNW 17:45:31 10° NE daylight
27 Oct - 06:02:21 10° NNE 06:08:13 11° NE 06:13:41 10° NE daylight
27 Oct - 08:14:59 10° NNW 08:33:56 38° NNE 08:46:30 10° E daylight
27 Oct - 10:39:44 10° WNW 10:58:18 75° NNE 11:08:08 10° ESE daylight
27 Oct - 13:08:10 10° W 13:21:06 70° S 13:27:55 10° ESE daylight
27 Oct - 15:34:37 10° WSW 15:42:36 83° SSE 15:47:32 10° ENE daylight
27 Oct - 17:58:20 10° W 18:02:14 22° NW 18:05:40 10° NNE daylight
28 Oct - 06:17:05 10° N 06:30:00 18° NE 06:41:00 10° ENE daylight
28 Oct - 08:35:14 10° NW 08:55:28 47° NNE 09:08:12 10° E daylight
28 Oct - 11:01:28 10° WNW 11:19:42 86° NNE 11:29:12 10° ESE daylight
28 Oct - 13:30:14 10° W 13:42:27 68° S 13:48:58 10° E daylight
28 Oct - 15:56:08 10° WSW 16:03:41 77° NNW 16:08:29 10° ENE daylight
28 Oct - 18:20:57 10° WNW 18:22:57 12° NW 18:24:51 10° NNW daylight
